This is the latest recevied weather packets stored in our database for station/object KC1OEK-13. If no packets are shown the sender has not sent any weather packets the latest 10 day(s).
| Time | Temp. | Humidity | Pressure | Rain* | Wind** | Luminosity | Snow |
|---|---|---|---|---|---|---|---|
| 1778075268 | 18.33° C | 77% | 1011.2 hPa | 0 mm | - | 289 W/m² | - |
| 1778074965 | 18.33° C | 77% | 1011.1 hPa | 0 mm | - | 225 W/m² | - |
| 1778074662 | 18.33° C | 77% | 1011.4 hPa | 0 mm | - | 231 W/m² | - |
| 1778074358 | 17.78° C | 78% | 1011.1 hPa | 0 mm | - | 341 W/m² | - |
| 1778074055 | 17.78° C | 78% | 1011.1 hPa | 0 mm | - | 178 W/m² | - |
| 1778073753 | 17.78° C | 78% | 1011.2 hPa | 0 mm | - | 192 W/m² | - |
| 1778073451 | 18.33° C | 78% | 1010.9 hPa | 0 mm | - | 245 W/m² | - |
| 1778073146 | 18.33° C | 78% | 1011.1 hPa | 0 mm | - | 225 W/m² | - |
| 1778072843 | 17.78° C | 79% | 1011.3 hPa | 0 mm | - | 318 W/m² | - |
| 1778072540 | 17.78° C | 79% | 1011.3 hPa | 0 mm | - | 290 W/m² | - |
| 1778072238 | 17.22° C | 81% | 1011.3 hPa | 0 mm | - | 208 W/m² | - |
| 1778071936 | 17.22° C | 82% | 1011.3 hPa | 0 mm | - | 165 W/m² | - |
| 1778071634 | 17.22° C | 82% | 1011.4 hPa | 0 mm | - | 133 W/m² | - |
| 1778071332 | 17.22° C | 82% | 1011.3 hPa | 0 mm | - | 130 W/m² | - |
| 1778071028 | 16.67° C | 82% | 1011.4 hPa | 0 mm | - | 123 W/m² | - |
| 1778070728 | 16.67° C | 82% | 1011.5 hPa | 0 mm | - | 104 W/m² | - |
| 1778070424 | 16.67° C | 83% | 1011.6 hPa | 0 mm | - | 82 W/m² | - |
| 1778070121 | 16.67° C | 84% | 1011.9 hPa | 0 mm | - | 85 W/m² | - |
| 1778069819 | 16.67° C | 83% | 1011.9 hPa | 0 mm | - | 135 W/m² | - |
| 1778069515 | 16.67° C | 83% | 1011.7 hPa | 0 mm | - | 202 W/m² | - |
| 1778069213 | 16.11° C | 84% | 1011.8 hPa | 0 mm | - | 177 W/m² | - |
| 1778068910 | 16.11° C | 85% | 1011.7 hPa | 0 mm | - | 163 W/m² | - |
| 1778068609 | 15.56° C | 86% | 1011.8 hPa | 0 mm | - | 207 W/m² | - |
| 1778068306 | 15.56° C | 87% | 1011.6 hPa | 0 mm | - | 198 W/m² | - |
| 1778068003 | 15.56° C | 87% | 1011.5 hPa | 0 mm | - | 117 W/m² | - |
* Rain latest hour (hover to see other rain measurements)
** Current wind speed in m/s (hover to see current wind gust speed)